Location: Angwan Shehu
(11.2514°N, 7.4613°E)
Time: 21:34:57
(UTC+00:00)

Cosmos 2322 Rocket - Pass Details

Date: 14 November 2019
Orbit: 833 x 851 km, 71.0° (Epoch: 06 December)

Event Time Altitude Azimuth Distance (km) Brightness Sun altitude
Rises 18:43:32 0° 193° (SSW) 3,372 5.7 -24.4°
Reaches altitude 10° 18:45:58 10° 191° (SSW) 2,436 4.9 -25.0°
Maximum altitude 18:51:33 79° 106° (ESE) 849 2.0 -26.3°
Enters shadow 18:51:45 78° 77° (ENE) 852 2.0 -26.4°
